Location: Liscomb Game Sanctuary
(45.1633°N, 62.5575°W)
Time: 19:42:25
(UTC-03:00)

Tiangong 2 - Pass Details

Date: 22 February 2018
Orbit: 292 x 297 km, 42.8° (Epoch: 18 June)

Event Time Altitude Azimuth Distance (km) Brightness Sun altitude
Rises 18:51:21 0° 270° (W) 2,088 7.0 -11.9°
Reaches altitude 10° 18:53:25 10° 263° (W) 1,242 5.2 -12.3°
Maximum altitude 18:56:04 42° 190° (S) 467 1.5 -12.7°
Enters shadow 18:57:28 22° 129° (SE) 759 2.1 -13.0°
